Regional Weather Roundup
Issued by NWS Lake Charles, LA

Home | Current Version | Previous Version | Text Only | Print | Product List | Glossary On
Versions: 1 2 3 4 5 6 7 8 9 10 11 12 13 14 15 16 17 18 19 20 21 22 23 24 25 26 27 28 29 30 31 32 33 34 35 36 37 38 39 40 41 42 43 44 45 46 47 48 49 50
000
ASUS44 KLCH 271110
RWRLCH
RWRLCH
REGIONAL WEATHER ROUNDUP
NATIONAL WEATHER SERVICE LAKE CHARLES LA
600 AM CDT FRI MAR 27 2015

Note: "fair" indicates few or no clouds below 12,000 feet with no
significant weather and/or obstructions to visibility.


ACROSS SOUTHEAST TEXAS

CITY           SKY/WX    TMP DP  RH WIND       PRES   REMARKS
BEAUMONT       CLEAR     47  45  93 CALM      30.11R
BEAUMONT CITY    N/A     44  44 100 CALM      30.11F
ORANGE         SUNNY     45  43  91 CALM      30.13R
JASPER         CLEAR     43  43  99 CALM      30.12R
$$

ACROSS CENTRAL LOUISIANA

CITY           SKY/WX    TMP DP  RH WIND       PRES   REMARKS
LEESVILLE      CLEAR     43  43 100 W2        30.07S
FULLERTON        N/A     44  39  82 CALM      30.05R
ALEXANDRIA INT CLEAR     44  44 100 CALM      30.05S
ESLER FIELD    CLEAR     40  39  97 W3        30.07R
DERIDDER         N/A     44  42  95 CALM      30.10S
OAKDALE        SUNNY     42  41  94 CALM      30.09R
OPELOUSAS        N/A     44  41  90 CALM      30.07S
$$

ACROSS SOUTHWEST AND SOUTH CENTRAL LOUISIANA

CITY           SKY/WX    TMP DP  RH WIND       PRES   REMARKS
SULPHUR        SUNNY     46  46  97 NW3       30.11S
LAKE CHARLES   CLEAR     47  44  90 NW5       30.09R
CHENNAULT INT  CLEAR     45  45 100 NW8       30.10S
CAMERON PHI    NOT AVBL
DEQUINCY         N/A     42  42 100 CALM      30.10S
JENNINGS         N/A     47  45  94 NW6       30.09R
LAFAYETTE      CLEAR     48  40  73 N8        30.06R
NEW IBERIA     CLEAR     49  39  68 N8        30.06R
ABBEVILLE        N/A     44  39  85 NW7       30.07R
PATTERSON      CLEAR     52  43  71 N12       30.04R
SALT POINT       N/A     51  45  79 N6        30.03R
$$

SELECTED SITES ACROSS THE REGION

CITY           SKY/WX    TMP DP  RH WIND       PRES   REMARKS
HOUSTON BUSH   CLEAR     47  41  80 CALM      30.12S
HOUSTON HOBBY  CLEAR     48  41  76 CALM      30.12F
GALVESTON      CLEAR     58  43  57 N13       30.14R
COLLEGE STAT   CLEAR     44  39  82 CALM      30.13S
CONROE         CLEAR     39  37  92 CALM      30.12S
HUNTSVILLE     CLEAR     44  38  79 CALM      30.11S
LUFKIN         CLEAR     42  37  82 CALM      30.10R
SHREVEPORT     CLEAR     42  37  82 CALM      30.08R
MONROE         FOG       39  39 100 CALM      30.07R VSB 1/2
NATCHEZ MS     CLEAR     41  36  81 CALM      30.05R
BATON ROUGE    CLEAR     47  40  76 NW7       30.04R
N.O. INTL ARPT CLOUDY    54  45  71 N14       30.00R
SLIDELL        CLOUDY    52  46  80 N9        29.98R
$$

MARINE REPORTS

STATION/POSITION TIME  TEMP    WIND        PRES    VSBY  WAVE
                       AIR SEA DIR/SP/G                  HT/PER
                 (UTC) (F)     (DEG/KT/KT) (MB)    (MI)  (FT/S)
BUOY 30 S HIGH I 1050   57 63  360/ 12/ 14 1019.6R         2/ 4
SEA RIM ST PARK  1000   50     330/  4/  5 1020.1R
PORT ARTHUR      1000      67  340/  4/  5 1019.5R
SABINE PASS N    1000   54 67   20/  7/ 10 1019.5R
TEXAS POINT      NOT AVBL
CALCASIEU PASS   1000   52 67  360/ 10/ 12   N/A
LK CHARLES BEACH 1000   50 67              1019.1R
MARSH ISLAND     1000   54     360/ 16/ 21   N/A           0
FRESH WATER LOCK 1000   51 69  340/ 13/ 17 1017.4R
AMERADA PASS     1000   54 56  320/  9/ 15 1016.0R
$$



USA.gov is the U.S. government's official web portal to all federal, state and local government web resources and services.